Location: Kawakawa
(35.3830°S, 174.0670°E)
Time: 03:38:13
(UTC+13:00)

Altair - Pass Details

Date: 08 December 2019
Orbit: 1502 x 1682 km, 47.2° (Epoch: 22 January)

Event Time Altitude Azimuth Distance (km) Brightness Sun altitude
Rises 20:28:31 0° 255° (WSW) 4,944 12.2 -0.7°
Reaches altitude 10° 20:35:45 10° 289° (WNW) 3,920 10.3 -2.0°
Maximum altitude 20:37:31 11° 300° (WNW) 3,863 10.1 -2.3°
Drops below altitude 10° 20:39:16 10° 310° (NW) 3,896 9.9 -2.6°
Sets 20:46:25 0° 345° (NNW) 4,824 9.9 -3.9°
